Terminal Aerodrome Forecast
Issued by NWS Billings, MT

Home | Current Version | Previous Version | Text Only | Print | Product List | Glossary On
Versions: 1 2 3 4 5 6 7 8 9 10 11 12 13 14 15 16 17 18 19 20 21 22 23 24 25 26 27 28 29 30 31 32 33 34 35
000
FTUS45 KBYZ 071720
TAFBIL
TAF
KBIL 071720Z 0718/0818 VRB05KT P6SM FEW200
     FM072200 04012G19KT P6SM VCTS SCT060CB BKN120
     FM080200 35011KT 6SM FU VCTS SCT060CB BKN080
     FM081100 VRB06KT P6SM VCSH BKN060
     FM081700 08009KT P6SM VCTS SCT060CB BKN100=

USA.gov is the U.S. government's official web portal to all federal, state and local government web resources and services.